Time,TemperatureF,DewpointF,PressureIn,WindDirection,WindDirectionDegrees,WindSpeedMPH,WindSpeedGustMPH,Humidity,HourlyPrecipIn,Conditions,Clouds,dailyrainin,SoftwareType,DateUTC
2013-03-16 00:00:00,49.1,42.2,29.96,East,83,3.6,4.9,77,0.00,,CLR,0.00,VWS V14.01,2013-03-16 07:00:00,
2013-03-16 00:05:00,48.9,41.7,29.96,East,101,4.9,5.4,76,0.00,,CLR,0.00,VWS V14.01,2013-03-16 07:05:00,
2013-03-16 00:10:00,48.2,41.0,29.96,SE,126,4.0,5.4,76,0.00,,CLR,0.00,VWS V14.01,2013-03-16 07:10:00,
2013-03-16 00:15:00,48.0,40.8,29.96,ESE,117,3.1,4.0,76,0.00,,CLR,0.00,VWS V14.01,2013-03-16 07:15:00,
2013-03-16 00:20:00,48.2,42.0,29.96,ESE,116,3.6,4.5,79,0.00,,CLR,0.00,VWS V14.01,2013-03-16 07:20:00,
2013-03-16 00:25:00,48.4,42.5,29.96,ESE,115,4.0,4.0,80,0.00,,CLR,0.00,VWS V14.01,2013-03-16 07:25:00,
2013-03-16 00:30:00,48.2,42.3,29.96,ESE,114,4.0,4.5,80,0.00,,CLR,0.00,VWS V14.01,2013-03-16 07:30:00,
2013-03-16 00:35:00,48.0,41.8,29.96,ESE,114,4.5,4.5,79,0.00,,CLR,0.00,VWS V14.01,2013-03-16 07:35:00,
2013-03-16 00:41:00,47.5,41.3,29.96,ESE,115,4.5,5.4,79,0.00,,CLR,0.00,VWS V14.01,2013-03-16 07:41:00,
2013-03-16 00:46:00,47.5,41.6,29.96,ESE,114,4.0,4.5,80,0.00,,CLR,0.00,VWS V14.01,2013-03-16 07:46:00,
2013-03-16 00:51:00,47.7,42.1,29.96,ESE,115,0.0,3.1,81,0.00,,CLR,0.00,VWS V14.01,2013-03-16 07:51:00,
2013-03-16 00:56:00,47.8,42.9,29.96,ESE,114,0.0,3.1,83,0.00,,CLR,0.00,VWS V14.01,2013-03-16 07:56:00,
2013-03-16 01:01:00,48.0,43.1,29.96,ESE,114,0.0,0.0,83,0.00,,CLR,0.00,VWS V14.01,2013-03-16 08:01:00,
2013-03-16 01:06:00,47.1,41.0,29.96,ESE,114,4.9,4.9,79,0.00,,CLR,0.00,VWS V14.01,2013-03-16 08:06:00,
2013-03-16 01:11:00,47.3,41.8,29.96,ESE,114,3.6,4.5,81,0.00,,CLR,0.00,VWS V14.01,2013-03-16 08:11:00,
2013-03-16 01:16:00,47.3,42.1,29.96,ESE,114,4.0,4.5,82,0.00,,CLR,0.00,VWS V14.01,2013-03-16 08:16:00,
2013-03-16 01:21:00,47.3,42.4,29.96,ESE,114,3.6,4.5,83,0.00,,CLR,0.00,VWS V14.01,2013-03-16 08:21:00,
2013-03-16 01:26:00,46.9,42.0,29.96,ESE,114,3.6,4.5,83,0.00,,CLR,0.00,VWS V14.01,2013-03-16 08:26:00,
2013-03-16 01:31:00,47.1,42.5,29.93,ESE,114,3.1,4.0,84,0.00,,CLR,0.00,VWS V14.01,2013-03-16 08:31:00,
2013-03-16 01:36:00,47.3,43.0,29.93,ESE,114,0.0,0.0,85,0.00,,CLR,0.00,VWS V14.01,2013-03-16 08:36:00,
2013-03-16 01:42:00,47.5,43.2,29.93,ESE,114,3.6,4.0,85,0.00,,CLR,0.00,VWS V14.01,2013-03-16 08:42:00,
2013-03-16 01:47:00,47.3,43.0,29.93,ESE,114,0.0,0.0,85,0.00,,CLR,0.00,VWS V14.01,2013-03-16 08:47:00,
2013-03-16 01:53:00,47.3,42.7,29.93,ESE,113,0.0,0.0,84,0.00,,CLR,0.00,VWS V14.01,2013-03-16 08:53:00,
2013-03-16 01:58:00,46.6,42.3,29.93,ESE,114,0.0,0.0,85,0.00,,CLR,0.00,VWS V14.01,2013-03-16 08:58:00,
2013-03-16 02:03:00,46.2,41.3,29.93,ESE,114,3.6,4.9,83,0.00,,CLR,0.00,VWS V14.01,2013-03-16 09:03:00,
2013-03-16 02:08:00,46.0,41.2,29.93,ESE,114,4.0,4.0,83,0.00,,CLR,0.00,VWS V14.01,2013-03-16 09:08:00,
2013-03-16 02:13:00,46.2,42.0,29.93,ESE,115,3.1,3.6,85,0.00,,CLR,0.00,VWS V14.01,2013-03-16 09:13:00,
2013-03-16 02:18:00,46.4,42.5,29.93,ESE,115,4.5,4.9,86,0.00,,CLR,0.00,VWS V14.01,2013-03-16 09:18:00,
2013-03-16 02:23:00,46.4,42.8,29.93,ESE,114,3.6,4.0,87,0.00,,CLR,0.00,VWS V14.01,2013-03-16 09:23:00,
2013-03-16 02:28:00,46.2,42.3,29.93,ESE,114,3.6,3.6,86,0.00,,CLR,0.00,VWS V14.01,2013-03-16 09:28:00,
2013-03-16 02:33:00,46.6,42.9,29.93,ESE,114,2.7,3.1,87,0.00,,CLR,0.00,VWS V14.01,2013-03-16 09:33:00,
2013-03-16 02:38:00,46.4,42.8,29.93,ESE,114,0.0,3.1,87,0.00,,CLR,0.00,VWS V14.01,2013-03-16 09:38:00,
2013-03-16 02:44:00,45.0,40.4,29.93,ESE,114,0.0,0.0,84,0.00,,CLR,0.00,VWS V14.01,2013-03-16 09:44:00,
2013-03-16 02:49:00,45.0,40.7,29.93,ESE,114,3.6,3.6,85,0.00,,CLR,0.00,VWS V14.01,2013-03-16 09:49:00,
2013-03-16 02:54:00,45.3,41.7,29.93,ESE,114,3.1,3.1,87,0.00,,CLR,0.00,VWS V14.01,2013-03-16 09:54:00,
2013-03-16 02:59:00,45.0,41.3,29.93,ESE,114,3.6,3.6,87,0.00,,CLR,0.00,VWS V14.01,2013-03-16 09:59:00,
2013-03-16 03:04:00,44.8,40.9,29.93,ESE,114,3.6,4.0,86,0.00,,CLR,0.00,VWS V14.01,2013-03-16 10:04:00,
2013-03-16 03:09:00,45.1,41.5,29.93,ESE,114,3.1,4.0,87,0.00,,CLR,0.00,VWS V14.01,2013-03-16 10:09:00,
2013-03-16 03:14:00,44.6,41.0,29.93,ESE,114,4.0,4.5,87,0.00,,CLR,0.00,VWS V14.01,2013-03-16 10:14:00,
2013-03-16 03:19:00,44.2,40.6,29.93,ESE,114,4.0,4.5,87,0.00,,CLR,0.00,VWS V14.01,2013-03-16 10:19:00,
2013-03-16 03:24:00,44.2,40.6,29.93,ESE,114,4.0,4.5,87,0.00,,CLR,0.00,VWS V14.01,2013-03-16 10:24:00,
2013-03-16 03:29:00,43.9,40.6,29.93,ESE,114,4.0,4.0,88,0.00,,CLR,0.00,VWS V14.01,2013-03-16 10:29:00,
2013-03-16 03:34:00,44.4,41.4,29.93,ESE,114,4.0,4.0,89,0.00,,CLR,0.00,VWS V14.01,2013-03-16 10:34:00,
2013-03-16 03:39:00,44.8,42.3,29.93,ESE,114,2.7,3.1,91,0.00,,CLR,0.00,VWS V14.01,2013-03-16 10:39:00,
2013-03-16 03:44:00,45.0,42.5,29.93,ESE,113,4.0,4.0,91,0.00,,CLR,0.00,VWS V14.01,2013-03-16 10:44:00,
2013-03-16 03:49:00,44.8,42.3,29.93,ESE,114,3.1,3.6,91,0.00,,CLR,0.00,VWS V14.01,2013-03-16 10:49:00,
2013-03-16 03:54:00,43.9,40.8,29.93,ESE,114,3.6,4.0,89,0.00,,CLR,0.00,VWS V14.01,2013-03-16 10:54:00,
2013-03-16 03:59:00,44.2,41.2,29.93,ESE,114,4.0,4.0,89,0.00,,CLR,0.00,VWS V14.01,2013-03-16 10:59:00,
2013-03-16 04:04:00,44.2,41.5,29.93,ESE,114,3.6,4.0,90,0.00,,CLR,0.00,VWS V14.01,2013-03-16 11:04:00,
2013-03-16 04:09:00,44.1,41.0,29.93,ESE,114,3.1,4.0,89,0.00,,CLR,0.00,VWS V14.01,2013-03-16 11:09:00,
2013-03-16 04:14:00,44.2,41.5,29.93,ESE,114,4.0,4.0,90,0.00,,CLR,0.00,VWS V14.01,2013-03-16 11:14:00,
2013-03-16 04:19:00,43.9,41.1,29.93,ESE,114,4.9,4.9,90,0.00,,CLR,0.00,VWS V14.01,2013-03-16 11:19:00,
2013-03-16 04:25:00,43.7,41.0,29.93,ESE,114,4.0,4.9,90,0.00,,CLR,0.00,VWS V14.01,2013-03-16 11:25:00,
2013-03-16 04:30:00,43.3,40.6,29.93,ESE,114,3.6,4.0,90,0.00,,CLR,0.00,VWS V14.01,2013-03-16 11:30:00,
2013-03-16 04:35:00,43.7,41.2,29.93,ESE,114,4.0,4.0,91,0.00,,CLR,0.00,VWS V14.01,2013-03-16 11:35:00,
2013-03-16 04:40:00,43.7,41.2,29.93,ESE,114,4.0,4.0,91,0.00,,CLR,0.00,VWS V14.01,2013-03-16 11:40:00,
2013-03-16 04:45:00,43.0,40.2,29.93,ESE,114,3.6,4.0,90,0.00,,CLR,0.00,VWS V14.01,2013-03-16 11:45:00,
2013-03-16 04:50:00,43.3,40.6,29.93,ESE,114,3.1,4.0,90,0.00,,CLR,0.00,VWS V14.01,2013-03-16 11:50:00,
2013-03-16 04:56:00,43.3,40.9,29.93,ESE,114,3.6,4.0,91,0.00,,CLR,0.00,VWS V14.01,2013-03-16 11:56:00,
2013-03-16 05:01:00,43.2,40.7,29.93,ESE,114,3.6,3.6,91,0.00,,CLR,0.00,VWS V14.01,2013-03-16 12:01:00,
2013-03-16 05:06:00,43.0,40.5,29.93,ESE,115,3.1,3.1,91,0.00,,CLR,0.00,VWS V14.01,2013-03-16 12:06:00,
2013-03-16 05:12:00,42.6,40.2,29.93,ESE,114,3.6,4.0,91,0.00,,CLR,0.00,VWS V14.01,2013-03-16 12:12:00,
2013-03-16 05:17:00,42.4,39.7,29.93,ESE,114,3.1,4.5,90,0.00,,CLR,0.00,VWS V14.01,2013-03-16 12:17:00,
2013-03-16 05:23:00,42.3,39.8,29.93,ESE,114,3.6,4.0,91,0.00,,CLR,0.00,VWS V14.01,2013-03-16 12:23:00,
2013-03-16 05:29:00,42.3,39.8,29.93,ESE,114,3.1,4.0,91,0.00,,CLR,0.00,VWS V14.01,2013-03-16 12:29:00,
2013-03-16 05:34:00,42.3,39.8,29.93,ESE,114,4.0,4.0,91,0.00,,CLR,0.00,VWS V14.01,2013-03-16 12:34:00,
2013-03-16 05:39:00,42.3,39.8,29.93,ESE,114,4.0,4.5,91,0.00,,CLR,0.00,VWS V14.01,2013-03-16 12:39:00,
2013-03-16 05:44:00,42.6,40.5,29.93,ESE,114,4.0,4.0,92,0.00,,CLR,0.00,VWS V14.01,2013-03-16 12:44:00,
2013-03-16 05:49:00,42.3,40.1,29.93,ESE,114,3.1,3.6,92,0.00,,CLR,0.00,VWS V14.01,2013-03-16 12:49:00,
2013-03-16 05:55:00,41.7,39.6,29.93,ESE,115,3.1,3.1,92,0.00,,CLR,0.00,VWS V14.01,2013-03-16 12:55:00,
2013-03-16 06:00:00,41.7,39.3,29.93,ESE,114,4.5,4.5,91,0.00,,CLR,0.00,VWS V14.01,2013-03-16 13:00:00,
2013-03-16 06:05:00,41.2,38.8,29.93,ESE,114,3.1,4.9,91,0.00,,CLR,0.00,VWS V14.01,2013-03-16 13:05:00,
2013-03-16 06:10:00,41.2,38.5,29.93,ESE,114,4.5,4.5,90,0.00,,CLR,0.00,VWS V14.01,2013-03-16 13:10:00,
2013-03-16 06:15:00,41.5,39.1,29.93,ESE,114,3.1,4.0,91,0.00,,CLR,0.00,VWS V14.01,2013-03-16 13:15:00,
2013-03-16 06:21:00,41.7,39.6,29.93,ESE,114,3.6,4.5,92,0.00,,CLR,0.00,VWS V14.01,2013-03-16 13:21:00,
2013-03-16 06:26:00,41.7,39.6,29.93,ESE,114,4.9,5.4,92,0.00,,CLR,0.00,VWS V14.01,2013-03-16 13:26:00,
2013-03-16 06:31:00,41.4,39.2,29.93,ESE,114,3.1,4.0,92,0.00,,CLR,0.00,VWS V14.01,2013-03-16 13:31:00,
2013-03-16 06:36:00,41.5,39.4,29.93,ESE,114,4.5,4.5,92,0.00,,CLR,0.00,VWS V14.01,2013-03-16 13:36:00,
2013-03-16 06:41:00,42.1,40.2,29.93,ESE,114,2.7,3.1,93,0.00,,CLR,0.00,VWS V14.01,2013-03-16 13:41:00,
2013-03-16 06:47:00,41.0,38.9,29.93,ESE,113,4.0,4.5,92,0.00,,CLR,0.00,VWS V14.01,2013-03-16 13:47:00,
2013-03-16 06:52:00,41.0,38.6,29.93,ESE,113,4.5,4.9,91,0.00,,CLR,0.00,VWS V14.01,2013-03-16 13:52:00,
2013-03-16 06:57:00,41.2,39.0,29.93,ESE,114,4.5,4.5,92,0.00,,CLR,0.00,VWS V14.01,2013-03-16 13:57:00,
2013-03-16 07:03:00,41.7,39.8,29.93,ESE,114,0.0,2.7,93,0.00,,CLR,0.00,VWS V14.01,2013-03-16 14:03:00,
2013-03-16 07:08:00,41.2,39.0,29.93,ESE,114,0.0,3.1,92,0.00,,CLR,0.00,VWS V14.01,2013-03-16 14:08:00,
2013-03-16 07:13:00,41.2,39.0,29.93,ESE,113,0.0,0.0,92,0.00,,CLR,0.00,VWS V14.01,2013-03-16 14:13:00,
2013-03-16 07:18:00,41.2,39.0,29.93,ESE,113,0.0,0.0,92,0.00,,CLR,0.00,VWS V14.01,2013-03-16 14:18:00,
2013-03-16 07:24:00,40.3,37.6,29.93,ESE,113,4.0,4.0,90,0.00,,CLR,0.00,VWS V14.01,2013-03-16 14:24:00,
2013-03-16 07:29:00,40.6,37.9,29.93,ESE,114,0.0,3.1,90,0.00,,CLR,0.00,VWS V14.01,2013-03-16 14:29:00,
2013-03-16 07:34:00,41.0,38.6,29.93,ESE,113,0.0,0.0,91,0.00,,CLR,0.00,VWS V14.01,2013-03-16 14:34:00,
2013-03-16 07:39:00,41.4,39.2,29.93,ESE,114,0.0,0.0,92,0.00,,CLR,0.00,VWS V14.01,2013-03-16 14:39:00,
2013-03-16 07:44:00,41.5,39.4,29.93,ESE,114,0.0,0.0,92,0.00,,CLR,0.00,VWS V14.01,2013-03-16 14:44:00,
2013-03-16 07:49:00,40.5,37.8,29.93,ESE,114,0.0,0.0,90,0.00,,CLR,0.00,VWS V14.01,2013-03-16 14:49:00,
2013-03-16 07:54:00,40.6,37.7,29.93,ESE,114,0.0,0.0,89,0.00,,CLR,0.00,VWS V14.01,2013-03-16 14:54:00,
2013-03-16 07:59:00,41.2,38.8,29.93,ESE,113,0.0,0.0,91,0.00,,CLR,0.00,VWS V14.01,2013-03-16 14:59:00,
2013-03-16 08:04:00,42.1,38.8,29.96,ESE,113,3.6,4.9,88,0.00,,CLR,0.00,VWS V14.01,2013-03-16 15:04:00,
2013-03-16 08:09:00,43.0,39.7,29.96,ESE,114,4.0,4.5,88,0.00,,CLR,0.00,VWS V14.01,2013-03-16 15:09:00,
2013-03-16 08:14:00,44.1,40.7,29.96,ESE,114,0.0,3.1,88,0.00,,CLR,0.00,VWS V14.01,2013-03-16 15:14:00,
2013-03-16 08:19:00,45.3,42.3,29.96,ESE,113,0.0,0.0,89,0.00,,CLR,0.00,VWS V14.01,2013-03-16 15:19:00,
2013-03-16 08:24:00,46.2,42.6,29.96,ESE,114,0.0,0.0,87,0.00,,CLR,0.00,VWS V14.01,2013-03-16 15:24:00,
2013-03-16 08:30:00,47.3,43.6,29.96,ESE,114,0.0,0.0,87,0.00,,CLR,0.00,VWS V14.01,2013-03-16 15:30:00,
2013-03-16 08:35:00,48.2,44.5,29.96,ESE,114,0.0,0.0,87,0.00,,CLR,0.00,VWS V14.01,2013-03-16 15:35:00,
2013-03-16 08:40:00,48.4,44.1,29.96,ESE,113,0.0,0.0,85,0.00,,CLR,0.00,VWS V14.01,2013-03-16 15:40:00,
2013-03-16 08:45:00,49.1,44.2,29.96,ESE,114,0.0,0.0,83,0.00,,CLR,0.00,VWS V14.01,2013-03-16 15:45:00,
2013-03-16 08:50:00,49.8,43.9,29.96,ESE,114,0.0,0.0,80,0.00,,CLR,0.00,VWS V14.01,2013-03-16 15:50:00,
2013-03-16 08:55:00,51.1,45.1,29.96,ESE,114,0.0,0.0,80,0.00,,CLR,0.00,VWS V14.01,2013-03-16 15:55:00,
2013-03-16 09:00:00,52.2,46.5,29.96,ESE,114,0.0,0.0,81,0.00,,CLR,0.00,VWS V14.01,2013-03-16 16:00:00,
2013-03-16 09:05:00,53.1,47.4,29.96,ESE,113,0.0,0.0,81,0.00,,CLR,0.00,VWS V14.01,2013-03-16 16:05:00,
2013-03-16 09:10:00,53.2,45.5,29.96,ESE,114,0.0,0.0,75,0.00,,CLR,0.00,VWS V14.01,2013-03-16 16:10:00,
2013-03-16 09:15:00,54.3,46.2,29.99,ESE,114,0.0,0.0,74,0.00,,CLR,0.00,VWS V14.01,2013-03-16 16:15:00,
2013-03-16 09:20:00,55.2,47.1,29.99,ESE,114,0.0,0.0,74,0.00,,CLR,0.00,VWS V14.01,2013-03-16 16:20:00,
2013-03-16 09:25:00,55.8,46.9,29.99,ESE,113,0.0,0.0,72,0.00,,CLR,0.00,VWS V14.01,2013-03-16 16:25:00,
2013-03-16 09:31:00,56.5,47.6,29.99,ESE,114,0.0,0.0,72,0.00,,CLR,0.00,VWS V14.01,2013-03-16 16:31:00,
2013-03-16 09:37:00,57.2,47.9,29.99,ESE,114,0.0,0.0,71,0.00,,CLR,0.00,VWS V14.01,2013-03-16 16:37:00,
2013-03-16 09:42:00,58.1,48.8,29.99,ESE,113,0.0,0.0,71,0.00,,CLR,0.00,VWS V14.01,2013-03-16 16:42:00,
2013-03-16 09:47:00,58.8,47.5,29.99,ESE,114,0.0,0.0,66,0.00,,CLR,0.00,VWS V14.01,2013-03-16 16:47:00,
2013-03-16 09:52:00,59.4,42.2,29.99,NNW,330,4.0,6.7,53,0.00,,CLR,0.00,VWS V14.01,2013-03-16 16:52:00,
2013-03-16 09:57:00,60.4,37.9,29.99,West,281,5.8,6.3,43,0.00,,CLR,0.00,VWS V14.01,2013-03-16 16:57:00,
2013-03-16 10:03:00,61.5,36.3,29.99,WNW,283,0.0,3.1,39,0.00,,CLR,0.00,VWS V14.01,2013-03-16 17:03:00,
2013-03-16 10:08:00,62.1,35.5,29.99,WNW,284,3.6,3.6,37,0.00,,CLR,0.00,VWS V14.01,2013-03-16 17:08:00,
2013-03-16 10:13:00,63.0,34.9,29.99,WNW,294,4.5,4.9,35,0.00,,CLR,0.00,VWS V14.01,2013-03-16 17:13:00,
2013-03-16 10:18:00,63.1,34.3,29.99,WNW,294,2.7,2.7,34,0.00,,CLR,0.00,VWS V14.01,2013-03-16 17:18:00,
2013-03-16 10:24:00,63.9,34.2,29.99,WNW,294,2.7,2.7,33,0.00,,CLR,0.00,VWS V14.01,2013-03-16 17:24:00,
2013-03-16 10:30:00,65.1,35.3,29.96,WNW,294,3.1,3.1,33,0.00,,CLR,0.00,VWS V14.01,2013-03-16 17:30:00,
2013-03-16 10:35:00,65.8,36.0,29.96,WNW,294,0.0,0.0,33,0.00,,CLR,0.00,VWS V14.01,2013-03-16 17:35:00,
2013-03-16 10:40:00,66.7,35.2,29.96,WNW,294,0.0,0.0,31,0.00,,CLR,0.00,VWS V14.01,2013-03-16 17:40:00,
2013-03-16 10:45:00,67.6,35.1,29.96,WNW,294,2.7,3.6,30,0.00,,CLR,0.00,VWS V14.01,2013-03-16 17:45:00,
2013-03-16 10:50:00,68.4,36.6,29.96,WNW,293,0.0,0.0,31,0.00,,CLR,0.00,VWS V14.01,2013-03-16 17:50:00,
2013-03-16 10:55:00,68.5,35.9,29.96,WNW,294,0.0,2.7,30,0.00,,CLR,0.00,VWS V14.01,2013-03-16 17:55:00,
2013-03-16 11:00:00,68.4,34.9,29.96,NNE,24,4.0,4.9,29,0.00,,CLR,0.00,VWS V14.01,2013-03-16 18:00:00,
2013-03-16 11:05:00,68.9,34.5,29.96,NNE,16,3.6,4.9,28,0.00,,CLR,0.00,VWS V14.01,2013-03-16 18:05:00,
2013-03-16 11:10:00,69.3,34.8,29.96,WSW,251,4.5,4.9,28,0.00,,CLR,0.00,VWS V14.01,2013-03-16 18:10:00,
2013-03-16 11:15:00,70.0,36.3,29.96,West,262,0.0,3.6,29,0.00,,CLR,0.00,VWS V14.01,2013-03-16 18:15:00,
2013-03-16 11:20:00,70.9,36.2,29.96,West,266,5.4,6.7,28,0.00,,CLR,0.00,VWS V14.01,2013-03-16 18:20:00,
2013-03-16 11:25:00,71.2,34.6,29.96,West,276,5.8,6.7,26,0.00,,CLR,0.00,VWS V14.01,2013-03-16 18:25:00,
2013-03-16 11:30:00,71.8,35.1,29.96,WSW,251,7.8,7.8,26,0.00,,CLR,0.00,VWS V14.01,2013-03-16 18:30:00,
2013-03-16 11:36:00,72.0,35.2,29.96,WSW,244,6.7,9.6,26,0.00,,CLR,0.00,VWS V14.01,2013-03-16 18:36:00,
2013-03-16 11:41:00,72.1,35.4,29.96,SW,236,4.9,10.1,26,0.00,,CLR,0.00,VWS V14.01,2013-03-16 18:41:00,
2013-03-16 11:47:00,71.8,35.1,29.96,West,261,9.2,10.5,26,0.00,,CLR,0.00,VWS V14.01,2013-03-16 18:47:00,
2013-03-16 11:52:00,71.1,34.5,29.96,SSW,208,9.2,10.1,26,0.00,,CLR,0.00,VWS V14.01,2013-03-16 18:52:00,
2013-03-16 11:57:00,70.5,36.8,29.96,WSW,241,7.4,9.2,29,0.00,,CLR,0.00,VWS V14.01,2013-03-16 18:57:00,
2013-03-16 12:02:00,70.7,37.8,29.96,NW,311,8.7,13.4,30,0.00,,CLR,0.00,VWS V14.01,2013-03-16 19:02:00,
2013-03-16 12:07:00,70.7,39.4,29.96,West,278,8.7,11.6,32,0.00,,CLR,0.00,VWS V14.01,2013-03-16 19:07:00,
2013-03-16 12:12:00,70.5,39.3,29.96,WSW,251,7.4,10.5,32,0.00,,CLR,0.00,VWS V14.01,2013-03-16 19:12:00,
2013-03-16 12:17:00,70.7,38.6,29.96,WNW,286,6.9,11.0,31,0.00,,CLR,0.00,VWS V14.01,2013-03-16 19:17:00,
2013-03-16 12:22:00,71.1,37.2,29.96,SW,236,12.1,13.4,29,0.00,,CLR,0.00,VWS V14.01,2013-03-16 19:22:00,
2013-03-16 12:28:00,70.0,37.2,29.96,NW,322,8.7,14.3,30,0.00,,CLR,0.00,VWS V14.01,2013-03-16 19:28:00,
2013-03-16 12:34:00,68.7,37.7,29.96,West,269,8.3,11.2,32,0.00,,CLR,0.00,VWS V14.01,2013-03-16 19:34:00,
2013-03-16 12:39:00,68.5,38.3,29.96,WNW,282,13.4,14.3,33,0.00,,CLR,0.00,VWS V14.01,2013-03-16 19:39:00,
2013-03-16 12:44:00,68.5,37.5,29.96,NW,310,6.9,11.6,32,0.00,,CLR,0.00,VWS V14.01,2013-03-16 19:44:00,
2013-03-16 12:49:00,69.1,38.8,29.99,WSW,256,3.6,8.3,33,0.00,,CLR,0.00,VWS V14.01,2013-03-16 19:49:00,
2013-03-16 12:54:00,68.9,37.8,29.99,West,261,4.5,9.6,32,0.00,,CLR,0.00,VWS V14.01,2013-03-16 19:54:00,
2013-03-16 12:59:00,69.1,38.0,29.99,West,269,10.5,11.6,32,0.00,,CLR,0.00,VWS V14.01,2013-03-16 19:59:00,
2013-03-16 13:05:00,68.9,38.6,29.96,West,281,10.1,10.1,33,0.00,,CLR,0.00,VWS V14.01,2013-03-16 20:05:00,
2013-03-16 13:10:00,68.5,38.3,29.96,WSW,239,8.7,10.5,33,0.00,,CLR,0.00,VWS V14.01,2013-03-16 20:10:00,
2013-03-16 13:15:00,68.7,38.5,29.96,SW,217,8.7,8.7,33,0.00,,CLR,0.00,VWS V14.01,2013-03-16 20:15:00,
2013-03-16 13:20:00,68.0,37.8,29.96,South,178,6.7,9.6,33,0.00,,CLR,0.00,VWS V14.01,2013-03-16 20:20:00,
2013-03-16 13:25:00,67.8,37.7,29.96,SW,234,5.8,10.1,33,0.00,,CLR,0.00,VWS V14.01,2013-03-16 20:25:00,
2013-03-16 13:30:00,68.0,37.8,29.96,WNW,284,6.3,7.4,33,0.00,,CLR,0.00,VWS V14.01,2013-03-16 20:30:00,
2013-03-16 13:35:00,68.5,38.3,29.96,SW,228,0.0,3.6,33,0.00,,CLR,0.00,VWS V14.01,2013-03-16 20:35:00,
2013-03-16 13:42:00,69.6,38.5,29.96,NW,317,4.5,7.4,32,0.00,,CLR,0.00,VWS V14.01,2013-03-16 20:42:00,
2013-03-16 13:48:00,69.8,38.6,29.96,West,273,0.0,3.6,32,0.00,,CLR,0.00,VWS V14.01,2013-03-16 20:48:00,
2013-03-16 13:53:00,69.6,38.5,29.96,South,172,4.5,4.9,32,0.00,,CLR,0.00,VWS V14.01,2013-03-16 20:53:00,
2013-03-16 13:58:00,70.0,38.8,29.96,SW,217,4.9,5.8,32,0.00,,CLR,0.00,VWS V14.01,2013-03-16 20:58:00,
2013-03-16 14:03:00,69.1,35.5,29.93,SW,219,6.9,6.9,29,0.00,,CLR,0.00,VWS V14.01,2013-03-16 21:03:00,
2013-03-16 14:08:00,70.2,37.3,29.93,West,279,4.9,6.9,30,0.00,,CLR,0.00,VWS V14.01,2013-03-16 21:08:00,
2013-03-16 14:13:00,70.9,34.3,29.93,NNW,329,6.7,6.9,26,0.00,,CLR,0.00,VWS V14.01,2013-03-16 21:13:00,
2013-03-16 14:18:00,71.1,34.5,29.93,West,280,4.5,4.5,26,0.00,,CLR,0.00,VWS V14.01,2013-03-16 21:18:00,
2013-03-16 14:23:00,71.6,34.0,29.93,West,269,3.1,6.7,25,0.00,,CLR,0.00,VWS V14.01,2013-03-16 21:23:00,
2013-03-16 14:28:00,72.1,33.4,29.93,SW,226,0.0,4.9,24,0.00,,CLR,0.00,VWS V14.01,2013-03-16 21:28:00,
2013-03-16 14:33:00,72.9,34.0,29.93,West,270,4.9,5.8,24,0.00,,CLR,0.00,VWS V14.01,2013-03-16 21:33:00,
2013-03-16 14:38:00,73.2,32.1,29.93,NW,308,0.0,4.9,22,0.00,,CLR,0.00,VWS V14.01,2013-03-16 21:38:00,
2013-03-16 14:45:00,74.1,32.9,29.93,West,274,6.7,11.2,22,0.00,,CLR,0.00,VWS V14.01,2013-03-16 21:45:00,
2013-03-16 14:50:00,74.1,32.9,29.93,WSW,242,4.0,7.8,22,0.00,,CLR,0.00,VWS V14.01,2013-03-16 21:50:00,
2013-03-16 14:55:00,73.9,32.7,29.93,West,275,11.0,11.0,22,0.00,,CLR,0.00,VWS V14.01,2013-03-16 21:55:00,
2013-03-16 15:00:00,73.9,32.7,29.93,WSW,245,8.7,9.2,22,0.00,,CLR,0.00,VWS V14.01,2013-03-16 22:00:00,
2013-03-16 15:06:00,73.8,31.4,29.93,WSW,246,5.8,9.6,21,0.00,,CLR,0.00,VWS V14.01,2013-03-16 22:06:00,
2013-03-16 15:11:00,73.2,32.1,29.93,SW,214,6.7,11.2,22,0.00,,CLR,0.00,VWS V14.01,2013-03-16 22:11:00,
2013-03-16 15:16:00,72.9,31.8,29.93,SW,215,6.9,9.6,22,0.00,,CLR,0.00,VWS V14.01,2013-03-16 22:16:00,
2013-03-16 15:22:00,72.3,31.4,29.93,SW,233,9.2,11.2,22,0.00,,CLR,0.00,VWS V14.01,2013-03-16 22:22:00,
2013-03-16 15:27:00,71.6,30.8,29.93,SW,232,4.9,7.8,22,0.00,,CLR,0.00,VWS V14.01,2013-03-16 22:27:00,
2013-03-16 15:32:00,72.3,31.4,29.93,West,273,6.7,10.5,22,0.00,,CLR,0.00,VWS V14.01,2013-03-16 22:32:00,
2013-03-16 15:37:00,72.7,31.7,29.93,WSW,239,5.8,7.8,22,0.00,,CLR,0.00,VWS V14.01,2013-03-16 22:37:00,
2013-03-16 15:42:00,73.2,32.1,29.93,SSW,202,6.7,8.3,22,0.00,,CLR,0.00,VWS V14.01,2013-03-16 22:42:00,
2013-03-16 15:47:00,73.4,32.3,29.93,West,276,6.7,10.1,22,0.00,,CLR,0.00,VWS V14.01,2013-03-16 22:47:00,
2013-03-16 15:52:00,73.2,31.0,29.93,West,281,7.8,7.8,21,0.00,,CLR,0.00,VWS V14.01,2013-03-16 22:52:00,
2013-03-16 15:57:00,73.6,31.3,29.93,WSW,258,6.7,11.2,21,0.00,,CLR,0.00,VWS V14.01,2013-03-16 22:57:00,
2013-03-16 16:02:00,73.4,31.1,29.93,West,274,6.9,9.2,21,0.00,,CLR,0.00,VWS V14.01,2013-03-16 23:02:00,
2013-03-16 16:07:00,73.4,31.1,29.93,West,261,10.1,11.6,21,0.00,,CLR,0.00,VWS V14.01,2013-03-16 23:07:00,
2013-03-16 16:12:00,73.4,31.1,29.93,NW,316,6.3,6.9,21,0.00,,CLR,0.00,VWS V14.01,2013-03-16 23:12:00,
2013-03-16 16:17:00,73.0,30.8,29.93,NNW,332,6.9,11.2,21,0.00,,CLR,0.00,VWS V14.01,2013-03-16 23:17:00,
2013-03-16 16:22:00,72.5,30.4,29.93,West,265,5.8,11.6,21,0.00,,CLR,0.00,VWS V14.01,2013-03-16 23:22:00,
2013-03-16 16:27:00,72.3,31.4,29.93,WSW,245,0.0,8.3,22,0.00,,CLR,0.00,VWS V14.01,2013-03-16 23:27:00,
2013-03-16 16:32:00,72.3,30.2,29.93,West,278,6.9,9.6,21,0.00,,CLR,0.00,VWS V14.01,2013-03-16 23:32:00,
2013-03-16 16:37:00,72.5,30.4,29.93,WNW,283,8.3,8.3,21,0.00,,CLR,0.00,VWS V14.01,2013-03-16 23:37:00,
2013-03-16 16:42:00,72.5,30.4,29.93,West,267,6.9,10.1,21,0.00,,CLR,0.00,VWS V14.01,2013-03-16 23:42:00,
2013-03-16 16:47:00,72.5,30.4,29.93,NNW,337,4.0,7.4,21,0.00,,CLR,0.00,VWS V14.01,2013-03-16 23:47:00,
2013-03-16 16:53:00,72.3,30.2,29.93,WNW,288,4.0,4.9,21,0.00,,CLR,0.00,VWS V14.01,2013-03-16 23:53:00,
2013-03-16 16:58:00,72.5,30.4,29.93,WNW,284,7.4,7.8,21,0.00,,CLR,0.00,VWS V14.01,2013-03-16 23:58:00,
2013-03-16 17:03:00,72.3,30.2,29.93,NW,306,5.4,8.3,21,0.00,,CLR,0.00,VWS V14.01,2013-03-17 00:03:00,
2013-03-16 17:08:00,72.0,29.9,29.93,WNW,293,4.5,6.7,21,0.00,,CLR,0.00,VWS V14.01,2013-03-17 00:08:00,
2013-03-16 17:14:00,71.6,29.6,29.93,West,279,4.9,6.7,21,0.00,,CLR,0.00,VWS V14.01,2013-03-17 00:14:00,
2013-03-16 17:19:00,71.4,30.6,29.93,West,266,4.0,5.8,22,0.00,,CLR,0.00,VWS V14.01,2013-03-17 00:19:00,
2013-03-16 17:24:00,71.2,30.5,29.93,WNW,292,6.9,7.4,22,0.00,,CLR,0.00,VWS V14.01,2013-03-17 00:24:00,
2013-03-16 17:29:00,71.1,30.3,29.93,WNW,287,4.9,5.4,22,0.00,,CLR,0.00,VWS V14.01,2013-03-17 00:29:00,
2013-03-16 17:34:00,70.7,30.0,29.93,WNW,287,2.7,4.0,22,0.00,,CLR,0.00,VWS V14.01,2013-03-17 00:34:00,
2013-03-16 17:39:00,70.5,29.9,29.93,WNW,287,3.1,3.1,22,0.00,,CLR,0.00,VWS V14.01,2013-03-17 00:39:00,
2013-03-16 17:44:00,70.3,29.7,29.93,WNW,287,0.0,0.0,22,0.00,,CLR,0.00,VWS V14.01,2013-03-17 00:44:00,
2013-03-16 17:49:00,70.0,30.5,29.90,WNW,287,0.0,0.0,23,0.00,,CLR,0.00,VWS V14.01,2013-03-17 00:49:00,
2013-03-16 17:54:00,69.8,30.4,29.90,WNW,288,0.0,0.0,23,0.00,,CLR,0.00,VWS V14.01,2013-03-17 00:54:00,
2013-03-16 18:00:00,69.3,31.0,29.90,WNW,288,0.0,0.0,24,0.00,,CLR,0.00,VWS V14.01,2013-03-17 01:00:00,
2013-03-16 18:05:00,68.9,29.6,29.90,WNW,287,0.0,0.0,23,0.00,,CLR,0.00,VWS V14.01,2013-03-17 01:05:00,
2013-03-16 18:10:00,68.5,29.3,29.90,WNW,288,0.0,0.0,23,0.00,,CLR,0.00,VWS V14.01,2013-03-17 01:10:00,
2013-03-16 18:15:00,68.5,29.3,29.90,WNW,288,0.0,0.0,23,0.00,,CLR,0.00,VWS V14.01,2013-03-17 01:15:00,
2013-03-16 18:20:00,68.0,30.9,29.90,WNW,288,0.0,0.0,25,0.00,,CLR,0.00,VWS V14.01,2013-03-17 01:20:00,
2013-03-16 18:25:00,67.6,30.6,29.90,WNW,288,0.0,0.0,25,0.00,,CLR,0.00,VWS V14.01,2013-03-17 01:25:00,
2013-03-16 18:30:00,67.3,31.2,29.90,WNW,288,0.0,0.0,26,0.00,,CLR,0.00,VWS V14.01,2013-03-17 01:30:00,
2013-03-16 18:36:00,66.4,30.5,29.90,WNW,288,0.0,2.7,26,0.00,,CLR,0.00,VWS V14.01,2013-03-17 01:36:00,
2013-03-16 18:41:00,65.8,36.0,29.90,WNW,287,0.0,3.1,33,0.00,,CLR,0.00,VWS V14.01,2013-03-17 01:41:00,
2013-03-16 18:46:00,65.1,36.1,29.90,WNW,288,3.1,3.1,34,0.00,,CLR,0.00,VWS V14.01,2013-03-17 01:46:00,
2013-03-16 18:51:00,64.8,36.5,29.90,WNW,287,3.6,4.0,35,0.00,,CLR,0.00,VWS V14.01,2013-03-17 01:51:00,
2013-03-16 18:57:00,64.0,35.9,29.90,WNW,288,4.5,4.9,35,0.00,,CLR,0.00,VWS V14.01,2013-03-17 01:57:00,
2013-03-16 19:02:00,63.3,36.6,29.90,WNW,287,3.6,4.0,37,0.00,,CLR,0.00,VWS V14.01,2013-03-17 02:02:00,
2013-03-16 19:07:00,62.6,36.0,29.90,WNW,287,5.4,5.4,37,0.00,,CLR,0.00,VWS V14.01,2013-03-17 02:07:00,
2013-03-16 19:12:00,62.6,35.3,29.90,WNW,285,4.0,4.5,36,0.00,,CLR,0.00,VWS V14.01,2013-03-17 02:12:00,
2013-03-16 19:17:00,61.3,36.2,29.90,ESE,113,5.4,5.4,39,0.00,,CLR,0.00,VWS V14.01,2013-03-17 02:17:00,
2013-03-16 19:22:00,60.6,36.8,29.90,ESE,114,3.6,3.6,41,0.00,,CLR,0.00,VWS V14.01,2013-03-17 02:22:00,
2013-03-16 19:27:00,60.4,37.3,29.90,ESE,114,4.5,5.4,42,0.00,,CLR,0.00,VWS V14.01,2013-03-17 02:27:00,
2013-03-16 19:32:00,59.9,35.5,29.90,ESE,114,4.0,4.5,40,0.00,,CLR,0.00,VWS V14.01,2013-03-17 02:32:00,
2013-03-16 19:37:00,59.4,36.9,29.90,ESE,114,4.9,5.8,43,0.00,,CLR,0.00,VWS V14.01,2013-03-17 02:37:00,
2013-03-16 19:43:00,58.5,37.2,29.90,ESE,113,5.4,5.4,45,0.00,,CLR,0.00,VWS V14.01,2013-03-17 02:43:00,
2013-03-16 19:48:00,57.9,37.3,29.90,ESE,113,4.5,4.9,46,0.00,,CLR,0.00,VWS V14.01,2013-03-17 02:48:00,
2013-03-16 19:53:00,57.4,36.8,29.90,ESE,111,4.5,4.9,46,0.00,,CLR,0.00,VWS V14.01,2013-03-17 02:53:00,
2013-03-16 19:58:00,56.8,36.8,29.90,ESE,110,4.9,5.8,47,0.00,,CLR,0.00,VWS V14.01,2013-03-17 02:58:00,
2013-03-16 20:04:00,56.3,36.9,29.93,ESE,106,5.8,5.8,48,0.00,,CLR,0.00,VWS V14.01,2013-03-17 03:04:00,
2013-03-16 20:09:00,55.8,36.4,29.93,ESE,110,6.3,6.9,48,0.00,,CLR,0.00,VWS V14.01,2013-03-17 03:09:00,
2013-03-16 20:14:00,55.4,36.6,29.93,ESE,110,5.4,6.3,49,0.00,,CLR,0.00,VWS V14.01,2013-03-17 03:14:00,
2013-03-16 20:19:00,54.9,36.1,29.93,ESE,105,5.4,5.4,49,0.00,,CLR,0.00,VWS V14.01,2013-03-17 03:19:00,
2013-03-16 20:24:00,54.9,36.1,29.93,ESE,104,4.0,4.9,49,0.00,,CLR,0.00,VWS V14.01,2013-03-17 03:24:00,
2013-03-16 20:29:00,54.7,35.4,29.93,ESE,103,5.4,5.4,48,0.00,,CLR,0.00,VWS V14.01,2013-03-17 03:29:00,
2013-03-16 20:34:00,54.3,35.6,29.93,ESE,103,4.5,5.8,49,0.00,,CLR,0.00,VWS V14.01,2013-03-17 03:34:00,
2013-03-16 20:39:00,53.6,35.4,29.93,ESE,104,4.9,5.8,50,0.00,,CLR,0.00,VWS V14.01,2013-03-17 03:39:00,
2013-03-16 20:44:00,53.1,35.4,29.93,ESE,108,4.9,5.8,51,0.00,,CLR,0.00,VWS V14.01,2013-03-17 03:44:00,
2013-03-16 20:49:00,53.1,35.4,29.93,ESE,105,4.9,5.4,51,0.00,,CLR,0.00,VWS V14.01,2013-03-17 03:49:00,
2013-03-16 20:54:00,53.1,35.4,29.93,East,100,4.0,5.4,51,0.00,,CLR,0.00,VWS V14.01,2013-03-17 03:54:00,
2013-03-16 20:59:00,52.7,35.6,29.93,ESE,105,4.9,5.8,52,0.00,,CLR,0.00,VWS V14.01,2013-03-17 03:59:00,
2013-03-16 21:00:00,52.5,35.4,29.93,ESE,106,4.5,4.9,52,0.00,,CLR,0.00,VWS V14.01,2013-03-17 04:00:00,
2013-03-16 21:01:00,52.5,35.4,29.93,ESE,106,5.4,5.4,52,0.00,,CLR,0.00,VWS V14.01,2013-03-17 04:01:00,
2013-03-16 21:02:00,52.3,35.2,29.93,ESE,106,4.5,5.4,52,0.00,,CLR,0.00,VWS V14.01,2013-03-17 04:02:00,
2013-03-16 21:08:00,52.0,35.4,29.93,ESE,110,4.9,4.9,53,0.00,,CLR,0.00,VWS V14.01,2013-03-17 04:08:00,
2013-03-16 21:13:00,52.0,35.4,29.93,ESE,113,5.8,6.7,53,0.00,,CLR,0.00,VWS V14.01,2013-03-17 04:13:00,
2013-03-16 21:18:00,51.8,35.7,29.93,ESE,109,5.8,6.7,54,0.00,,CLR,0.00,VWS V14.01,2013-03-17 04:18:00,
2013-03-16 21:23:00,51.6,35.5,29.93,ESE,109,5.8,6.7,54,0.00,,CLR,0.00,VWS V14.01,2013-03-17 04:23:00,
2013-03-16 21:28:00,51.3,35.7,29.93,ESE,108,5.4,5.8,55,0.00,,CLR,0.00,VWS V14.01,2013-03-17 04:28:00,
2013-03-16 21:33:00,51.3,35.7,29.96,ESE,106,6.7,6.9,55,0.00,,CLR,0.00,VWS V14.01,2013-03-17 04:33:00,
2013-03-16 21:38:00,51.1,36.0,29.96,East,98,4.9,5.4,56,0.00,,CLR,0.00,VWS V14.01,2013-03-17 04:38:00,
2013-03-16 21:43:00,51.1,36.0,29.96,ESE,109,4.9,5.4,56,0.00,,CLR,0.00,VWS V14.01,2013-03-17 04:43:00,
2013-03-16 21:48:00,50.9,35.8,29.96,ESE,118,4.5,5.4,56,0.00,,CLR,0.00,VWS V14.01,2013-03-17 04:48:00,
2013-03-16 21:54:00,50.4,35.7,29.96,ESE,118,4.5,4.9,57,0.00,,CLR,0.00,VWS V14.01,2013-03-17 04:54:00,
2013-03-16 21:56:00,50.2,36.0,29.96,ESE,103,5.4,5.8,58,0.00,,CLR,0.00,VWS V14.01,2013-03-17 04:56:00,
2013-03-16 22:01:00,50.7,36.9,29.96,SE,129,5.4,8.3,59,0.00,,CLR,0.00,VWS V14.01,2013-03-17 05:01:00,
2013-03-16 22:06:00,50.5,36.3,29.96,SE,125,5.8,6.3,58,0.00,,CLR,0.00,VWS V14.01,2013-03-17 05:06:00,
2013-03-16 22:12:00,50.5,36.8,29.96,ESE,105,4.5,4.9,59,0.00,,CLR,0.00,VWS V14.01,2013-03-17 05:12:00,
2013-03-16 22:17:00,50.4,36.6,29.96,ESE,109,4.0,4.5,59,0.00,,CLR,0.00,VWS V14.01,2013-03-17 05:17:00,
2013-03-16 22:22:00,49.8,36.5,29.96,ESE,110,4.9,5.4,60,0.00,,CLR,0.00,VWS V14.01,2013-03-17 05:22:00,
2013-03-16 22:27:00,49.6,37.2,29.96,ESE,110,4.0,4.5,62,0.00,,CLR,0.00,VWS V14.01,2013-03-17 05:27:00,
2013-03-16 22:32:00,49.6,37.2,29.96,ESE,109,5.4,6.3,62,0.00,,CLR,0.00,VWS V14.01,2013-03-17 05:32:00,
2013-03-16 22:37:00,49.5,37.4,29.96,ESE,119,4.0,5.4,63,0.00,,CLR,0.00,VWS V14.01,2013-03-17 05:37:00,
2013-03-16 22:42:00,49.1,37.5,29.96,ESE,121,5.4,5.4,64,0.00,,CLR,0.00,VWS V14.01,2013-03-17 05:42:00,
2013-03-16 22:47:00,48.9,37.7,29.96,ESE,119,3.1,3.6,65,0.00,,CLR,0.00,VWS V14.01,2013-03-17 05:47:00,
2013-03-16 22:52:00,48.7,37.9,29.96,ESE,120,3.1,3.6,66,0.00,,CLR,0.00,VWS V14.01,2013-03-17 05:52:00,
2013-03-16 22:57:00,48.6,37.0,29.96,ESE,120,4.5,4.5,64,0.00,,CLR,0.00,VWS V14.01,2013-03-17 05:57:00,
2013-03-16 23:02:00,47.3,35.4,29.96,ESE,120,4.9,5.4,63,0.00,,CLR,0.00,VWS V14.01,2013-03-17 06:02:00,
2013-03-16 23:07:00,47.3,37.3,29.96,ESE,120,4.5,4.5,68,0.00,,CLR,0.00,VWS V14.01,2013-03-17 06:07:00,
2013-03-16 23:12:00,47.3,37.7,29.96,WNW,284,8.7,9.2,69,0.00,,CLR,0.00,VWS V14.01,2013-03-17 06:12:00,
2013-03-16 23:18:00,47.3,37.3,29.99,WNW,285,4.9,5.8,68,0.00,,CLR,0.00,VWS V14.01,2013-03-17 06:18:00,
2013-03-16 23:23:00,47.8,38.2,29.99,WNW,298,4.5,4.9,69,0.00,,CLR,0.00,VWS V14.01,2013-03-17 06:23:00,
2013-03-16 23:28:00,48.2,38.5,29.99,ENE,73,6.3,6.9,69,0.00,,CLR,0.00,VWS V14.01,2013-03-17 06:28:00,
2013-03-16 23:33:00,48.2,37.4,29.99,East,83,4.5,5.4,66,0.00,,CLR,0.00,VWS V14.01,2013-03-17 06:33:00,
2013-03-16 23:38:00,48.0,37.2,29.99,SE,125,5.4,5.4,66,0.00,,CLR,0.00,VWS V14.01,2013-03-17 06:38:00,
2013-03-16 23:43:00,47.7,36.9,29.99,ESE,121,4.0,4.5,66,0.00,,CLR,0.00,VWS V14.01,2013-03-17 06:43:00,
2013-03-16 23:48:00,47.8,37.8,29.99,ESE,109,2.7,3.6,68,0.00,,CLR,0.00,VWS V14.01,2013-03-17 06:48:00,
2013-03-16 23:53:00,48.4,38.7,29.99,ESE,109,3.6,4.0,69,0.00,,CLR,0.00,VWS V14.01,2013-03-17 06:53:00,
2013-03-16 23:58:00,48.0,37.2,29.99,ESE,109,4.5,4.5,66,0.00,,CLR,0.00,VWS V14.01,2013-03-17 06:58:00,